QPF
0.00 0.00 0.00 0.00 0.00 0.00 0.00 0.00 0.00 0.00 0.00 0.00 0.00 0.00 0.00 0.00 0.00 0.00 0.00 0.00 0.00 0.00 0.00 0.00 0.00 0.00 0.00 0.00 0.00 0.00 0.00 0.00 0.00 0.00 0.00 0.00 0.00 0.00 0.00 0.00 0.00 0.00 0.00 0.00 0.00 0.00 0.00
0.00 0.00 0.00 0.00 0.00 0.00 0.00 0.00 0.00 0.00 0.00 0.00 0.00 0.00 0.00 0.00 0.00 0.00 0.00 0.00 0.00 0.00 0.00 0.00 0.00 0.00 0.00 0.00 0.00 0.00 0.00 0.00 0.00 0.00 0.00 0.00 0.00 0.00 0.00 0.00 0.00 0.00 0.00 0.00 0.00 0.00 0.00
0.00 0.00 0.00 0.00 0.00 0.00 0.00 0.00 0.00 0.00 0.00 0.00 0.00 0.00 0.00 0.00 0.00 0.00 0.00 0.00 0.00 0.00 0.00 0.00 0.00 0.00 0.00 0.00 0.00 0.00 0.00 0.00 0.00 0.00 0.00 0.00 0.00 0.00 0.00 0.00 0.00 0.00 0.00 0.00 0.00 0.00 0.00
0.00 0.00 0.00 0.00 0.00 0.00 0.00 0.00 0.00 0.00 0.00 0.00 0.00 0.00 0.00 0.00 0.00 0.00 0.00 0.00 0.00 0.00 0.00 0.00 0.00 0.00 0.00 0.00 0.00 0.00 0.00 0.00 0.00 0.00 0.00 0.00 0.00 0.00 0.00 0.00 0.00 0.00 0.00 0.00 0.00 0.00 0.00
0.00 0.00 0.00 0.00 0.00 0.00 0.00 0.00 0.00 0.00 0.00 0.00 0.00 0.00 0.00 0.00 0.00 0.00 0.00 0.00 0.00 0.00 0.00 0.00 0.00 0.00 0.00 0.00 0.00 0.00 0.00 0.00 0.00 0.00 0.00 0.00 0.00 0.00 0.00 0.00 0.00 0.00 0.00 0.00 0.00 0.00 0.00
0.00 0.00 0.00 0.00 0.00 0.00 0.00 0.00 0.00 0.00 0.00 0.00 0.00 0.00 0.00 0.00 0.00 0.00 0.00 0.00 0.00 0.00 0.00 0.00 0.00 0.00 0.00 0.00 0.00 0.00 0.00 0.00 0.00 0.00 0.00 0.00 0.00 0.00 0.00 0.00 0.00 0.00 0.00 0.00 0.00 0.00 0.00
0.00 0.00 0.00 0.00 0.00 0.00 0.00 0.00 0.00 0.00 0.00 0.00 0.00 0.00 0.00 0.00 0.00 0.00 0.00 0.00 0.00 0.00 0.00 0.00 0.00 0.00 0.00 0.00 0.00 0.00 0.00 0.00 0.00 0.00 0.00 0.00 0.00 0.00 0.00 0.00 0.00 0.00 0.00 0.00 0.00 0.00 0.00
0.00 0.00 0.00 0.00 0.00 0.00 0.00 0.00 0.00 0.00 0.00 0.00 0.00 0.00 0.00 0.00 0.00 0.00 0.00 0.00 0.00 0.00 0.00 0.00 0.00 0.00 0.00 0.00 0.00 0.00 0.00 0.00 0.00 0.00 0.00 0.00 0.00 0.00 0.00 0.00 0.00 0.00 0.00 0.00 0.00 0.00 0.00
0.00 0.00 0.00 0.00 0.00 0.00 0.00 0.00 0.00 0.00 0.00 0.00 0.00 0.00 0.00 0.00 0.00 0.00 0.00 0.00 0.00 0.00 0.00 0.00 0.00 0.00 0.00 0.00 0.00 0.00 0.00 0.00 0.00 0.00 0.00 0.00 0.00 0.00 0.00 0.00 0.00 0.00 0.00 0.00 0.00 0.00 0.00
0.00 0.00 0.00 0.00 0.00 0.00 0.00 0.00 0.00 0.00 0.00 0.00 0.00 0.00 0.00 0.00 0.00 0.00 0.00 0.00 0.00 0.00 0.00 0.00 0.00 0.00 0.00 0.00 0.00 0.00 0.00 0.00 0.00 0.00 0.00 0.00 0.00 0.00 0.00 0.00 0.00 0.00 0.00 0.00 0.00 0.00 0.00
0.00 0.00 0.00 0.00 0.00 0.00 0.00 0.00 0.00 0.00 0.00 0.00 0.00 0.00 0.00 0.00 0.00 0.00 0.00 0.00 0.00 0.01 0.00 0.00 0.00 0.00 0.00 0.00 0.00 0.00 0.00 0.00 0.00 0.00 0.00 0.00 0.00 0.00 0.00 0.00 0.00 0.00 0.00 0.00 0.00 0.00 0.00
0.00 0.00 0.00 0.00 0.00 0.00 0.00 0.00 0.00 0.00 0.00 0.00 0.00 0.00 0.00 0.00 0.00 0.00 0.00 0.00 0.01 0.02 0.00 0.00 0.00 0.00 0.00 0.00 0.00 0.00 0.00 0.00 0.00 0.00 0.00 0.00 0.00 0.00 0.00 0.00 0.00 0.00 0.00 0.00 0.00 0.00 0.00
0.00 0.00 0.00 0.00 0.00 0.00 0.00 0.00 0.00 0.00 0.00 0.00 0.00 0.00 0.00 0.00 0.00 0.00 0.00 0.00 0.01 0.01 0.00 0.00 0.00 0.00 0.00 0.00 0.00 0.00 0.00 0.00 0.00 0.00 0.00 0.00 0.00 0.00 0.00 0.00 0.00 0.00 0.00 0.00 0.00 0.00 0.00
0.00 0.00 0.00 0.00 0.00 0.00 0.00 0.00 0.00 0.00 0.00 0.00 0.00 0.00 0.00 0.00 0.00 0.00 0.00 0.00 0.00 0.00 0.00 0.00 0.00 0.00 0.00 0.00 0.00 0.00 0.00 0.00 0.00 0.00 0.00 0.00 0.00 0.00 0.00 0.00 0.00 0.00 0.00 0.00 0.00 0.00 0.00
0.00 0.00 0.00 0.00 0.00 0.00 0.00 0.00 0.00 0.00 0.00 0.00 0.00 0.00 0.00 0.00 0.00 0.00 0.00 0.00 0.00 0.00 0.00 0.00 0.00 0.00 0.00 0.00 0.00 0.00 0.00 0.00 0.00 0.00 0.00 0.00 0.00 0.00 0.00 0.00 0.00 0.00 0.00 0.00 0.00 0.00 0.00
0.00 0.00 0.00 0.00 0.00 0.00 0.00 0.00 0.00 0.00 0.00 0.00 0.00 0.00 0.00 0.00 0.00 0.00 0.00 0.00 0.00 0.00 0.00 0.00 0.00 0.00 0.00 0.00 0.00 0.00 0.00 0.00 0.00 0.00 0.00 0.00 0.00 0.00 0.00 0.00 0.00 0.00 0.00 0.00 0.00 0.01 0.00
0.00 0.00 0.00 0.00 0.01 0.00 0.00 0.00 0.00 0.00 0.00 0.00 0.00 0.00 0.00 0.00 0.01 0.01 0.00 0.00 0.00 0.00 0.00 0.00 0.00 0.00 0.00 0.00 0.00 0.03 0.02 0.01 0.00 0.00 0.00 0.00 0.00 0.00 0.00 0.00 0.00 0.00 0.00 0.00 0.00 0.00 0.01
0.00 0.00 0.00 0.00 0.01 0.00 0.00 0.00 0.00 0.01 0.01 0.00 0.00 0.00 0.00 0.00 0.00 0.00 0.00 0.00 0.00 0.00 0.00 0.00 0.00 0.00 0.00 0.00 0.00 0.02 0.02 0.01 0.00 0.00 0.00 0.00 0.00 0.00 0.00 0.00 0.00 0.00 0.00 0.00 0.00 0.00 0.01
0.00 0.00 0.00 0.00 0.00 0.00 0.00 0.00 0.00 0.02 0.00 0.00 0.00 0.00 0.00 0.00 0.00 0.00 0.00 0.00 0.00 0.00 0.00 0.00 0.00 0.00 0.00 0.00 0.00 0.00 0.00 0.00 0.00 0.00 0.00 0.00 0.00 0.00 0.00 0.00 0.00 0.00 0.00 0.00 0.01 0.01 0.00
0.00 0.01 0.00 0.00 0.00 0.00 0.00 0.00 0.00 0.02 0.01 0.00 0.00 0.00 0.00 0.00 0.00 0.00 0.00 0.00 0.00 0.00 0.00 0.01 0.00 0.00 0.00 0.00 0.00 0.00 0.00 0.00 0.00 0.00 0.00 0.00 0.00 0.00 0.00 0.00 0.00 0.00 0.00 0.00 0.01 0.01 0.00
0.00 0.00 0.00 0.00 0.00 0.00 0.00 0.00 0.00 0.02 0.02 0.00 0.00 0.00 0.00 0.00 0.00 0.00 0.00 0.01 0.01 0.01 0.01 0.00 0.00 0.00 0.00 0.00 0.00 0.00 0.00 0.00 0.00 0.00 0.00 0.00 0.00 0.00 0.00 0.00 0.00 0.00 0.00 0.00 0.00 0.00 0.00
0.00 0.00 0.00 0.00 0.00 0.00 0.00 0.00 0.01 0.02 0.02 0.00 0.00 0.00 0.00 0.00 0.00 0.00 0.00 0.01 0.01 0.00 0.00 0.00 0.00 0.00 0.00 0.00 0.00 0.00 0.00 0.00 0.00 0.00 0.00 0.00 0.00 0.00 0.00 0.00 0.00 0.00 0.00 0.00 0.00 0.00 0.00
0.00 0.00 0.00 0.00 0.01 0.00 0.00 0.00 0.01 0.03 0.02 0.00 0.00 0.00 0.00 0.00 0.00 0.00 0.00 0.00 0.00 0.00 0.00 0.00 0.00 0.00 0.00 0.00 0.00 0.00 0.00 0.00 0.00 0.00 0.00 0.00 0.00 0.00 0.00 0.00 0.00 0.00 0.00 0.00 0.00 0.00 0.00
0.00 0.00 0.00 0.01 0.02 0.00 0.00 0.01 0.02 0.04 0.03 0.00 0.00 0.00 0.00 0.00 0.00 0.00 0.00 0.00 0.00 0.00 0.00 0.00 0.00 0.00 0.00 0.00 0.00 0.00 0.00 0.00 0.00 0.00 0.00 0.00 0.00 0.00 0.00 0.00 0.00 0.00 0.00 0.00 0.00 0.00 0.00
0.00 0.00 0.01 0.02 0.00 0.00 0.00 0.01 0.01 0.02 0.05 0.00 0.00 0.00 0.00 0.00 0.00 0.00 0.00 0.00 0.00 0.00 0.00 0.00 0.00 0.00 0.00 0.00 0.00 0.00 0.00 0.00 0.00 0.00 0.00 0.00 0.00 0.00 0.00 0.00 0.00 0.00 0.00 0.00 0.00 0.00 0.00
0.00 0.01 0.01 0.01 0.00 0.00 0.00 0.00 0.01 0.01 0.04 0.01 0.00 0.00 0.00 0.00 0.00 0.00 0.00 0.00 0.00 0.00 0.00 0.00 0.00 0.00 0.00 0.00 0.00 0.00 0.00 0.00 0.00 0.00 0.00 0.00 0.00 0.00 0.00 0.00 0.00 0.00 0.00 0.00 0.00 0.00 0.00
0.00 0.01 0.02 0.01 0.00 0.00 0.00 0.00 0.00 0.01 0.03 0.03 0.00 0.00 0.00 0.00 0.00 0.00 0.00 0.00 0.00 0.00 0.00 0.00 0.00 0.00 0.00 0.00 0.00 0.00 0.00 0.00 0.00 0.00 0.00 0.00 0.00 0.00 0.00 0.00 0.00 0.00 0.00 0.00 0.00 0.00 0.00
0.01 0.02 0.01 0.00 0.00 0.00 0.00 0.00 0.00 0.00 0.01 0.03 0.00 0.00 0.00 0.00 0.00 0.00 0.00 0.00 0.00 0.00 0.00 0.00 0.00 0.00 0.00 0.00 0.00 0.00 0.00 0.00 0.00 0.00 0.00 0.00 0.00 0.00 0.00 0.00 0.00 0.00 0.00 0.00 0.00 0.00 0.00
0.01 0.02 0.01 0.00 0.00 0.00 0.01 0.01 0.00 0.00 0.00 0.03 0.02 0.00 0.00 0.00 0.00 0.00 0.00 0.00 0.00 0.00 0.00 0.00 0.00 0.00 0.00 0.00 0.00 0.00 0.00 0.00 0.00 0.00 0.00 0.00 0.00 0.01 0.00 0.00 0.00 0.00 0.00 0.00 0.00 0.00 0.00
MSLP
1021.88 1021.85 1021.85 1021.76 1021.79 1021.62 1021.40 1021.34 1021.15 1020.92 1020.61 1020.54 1020.47 1020.02 1019.80 1019.21 1018.95 1018.39 1017.91 1017.46 1016.77 1016.42 1015.97 1015.56 1015.33 1014.85 1014.91 1014.17 1011.29 1008.08 1007.87 1007.83 1007.98 1008.28 1008.36 1008.31 1008.28 1008.80 1008.96 1008.65 1008.57 1008.51 1008.26 1007.89 1007.51 1007.28 1007.16
1021.79 1021.83 1021.82 1021.74 1021.79 1021.57 1021.43 1021.21 1021.14 1020.89 1020.64 1020.38 1020.27 1019.83 1019.61 1019.13 1018.89 1018.35 1017.63 1017.04 1016.23 1015.83 1015.31 1014.86 1014.76 1014.79 1014.83 1013.14 1009.02 1008.23 1008.29 1008.25 1007.86 1007.97 1007.91 1008.00 1007.82 1007.72 1008.10 1008.09 1007.98 1007.36 1007.49 1007.22 1007.11 1006.85 1006.80
1021.74 1021.79 1021.67 1021.71 1021.83 1021.70 1021.48 1021.36 1021.21 1020.89 1020.81 1020.13 1020.06 1019.69 1019.49 1019.07 1018.62 1018.01 1017.22 1016.34 1015.35 1014.70 1014.25 1013.84 1013.84 1014.16 1013.35 1009.96 1008.56 1008.05 1008.24 1008.27 1007.92 1007.89 1007.75 1007.33 1007.22 1007.52 1007.56 1007.85 1007.28 1006.97 1007.32 1007.10 1006.95 1006.76 1006.56
1021.88 1021.73 1021.59 1021.73 1021.67 1021.56 1021.42 1021.25 1021.04 1020.91 1020.67 1020.30 1019.93 1019.68 1019.20 1018.93 1018.43 1017.74 1016.98 1016.01 1014.77 1013.90 1012.96 1012.29 1012.73 1013.19 1011.33 1008.72 1008.23 1008.03 1007.73 1007.31 1007.16 1007.36 1007.45 1006.97 1007.01 1007.38 1007.52 1007.44 1007.38 1007.15 1007.11 1007.07 1006.33 1006.25 1005.98
1022.00 1021.72 1021.66 1021.70 1021.57 1021.52 1021.41 1021.19 1021.00 1020.74 1020.68 1020.35 1020.02 1019.55 1019.26 1018.91 1018.32 1017.61 1016.75 1015.34 1013.64 1012.95 1012.19 1011.88 1012.35 1012.70 1009.92 1008.01 1007.70 1006.32 1006.79 1006.74 1006.09 1006.28 1006.63 1006.56 1007.01 1007.29 1007.40 1007.80 1008.08 1007.74 1007.32 1006.96 1006.45 1005.80 1005.81
1021.92 1021.79 1021.67 1021.64 1021.55 1021.44 1021.35 1021.17 1020.91 1020.83 1020.74 1020.30 1020.05 1019.57 1019.07 1018.64 1018.10 1017.42 1016.47 1014.51 1012.62 1012.40 1012.32 1012.27 1011.89 1012.45 1009.18 1007.35 1006.66 1005.87 1006.07 1006.24 1005.70 1005.76 1006.52 1006.64 1007.08 1007.29 1007.60 1008.05 1007.87 1008.38 1007.82 1007.12 1006.63 1006.12 1005.97
1021.89 1021.76 1021.64 1021.65 1021.48 1021.31 1021.21 1021.14 1020.95 1020.77 1020.71 1020.19 1019.99 1019.35 1018.98 1018.53 1018.01 1017.29 1016.39 1014.80 1013.54 1013.19 1013.18 1013.37 1012.18 1011.08 1008.94 1007.73 1006.41 1005.85 1005.93 1005.69 1005.27 1005.44 1006.04 1006.40 1007.02 1006.90 1007.30 1007.33 1007.63 1007.89 1007.86 1007.37 1006.81 1006.25 1006.17
1021.92 1021.79 1021.66 1021.54 1021.39 1021.28 1021.29 1021.00 1020.92 1020.76 1020.57 1020.13 1019.80 1019.35 1018.88 1018.39 1017.86 1017.29 1017.27 1017.10 1016.53 1016.98 1013.34 1011.80 1010.13 1009.28 1008.06 1007.58 1007.29 1005.86 1005.84 1005.63 1004.93 1005.31 1005.89 1006.80 1006.09 1006.26 1006.70 1007.15 1007.56 1007.84 1007.93 1007.62 1006.94 1006.46 1006.50
1021.91 1021.85 1021.64 1021.44 1021.44 1021.39 1021.16 1020.94 1020.99 1020.72 1020.39 1019.92 1019.66 1019.31 1018.71 1018.24 1017.60 1017.55 1017.72 1017.00 1016.50 1016.10 1014.39 1009.50 1007.61 1006.43 1005.67 1006.02 1005.97 1005.06 1005.74 1005.08 1004.83 1005.18 1005.52 1005.87 1005.72 1005.36 1006.33 1006.88 1007.39 1007.62 1007.87 1007.83 1007.40 1007.09 1006.81
1021.88 1021.75 1021.50 1021.48 1021.47 1021.37 1021.10 1020.96 1020.89 1020.62 1020.27 1019.88 1019.63 1019.16 1018.66 1018.26 1017.73 1018.08 1017.36 1016.63 1016.04 1015.77 1013.81 1008.69 1006.25 1004.65 1004.40 1004.78 1004.75 1004.12 1004.32 1004.64 1004.75 1004.92 1005.58 1005.74 1005.39 1005.67 1006.13 1006.55 1006.91 1007.42 1007.40 1007.58 1007.82 1008.06 1008.26
1021.86 1021.54 1021.52 1021.59 1021.41 1021.27 1021.07 1021.05 1020.76 1020.47 1020.17 1019.84 1019.51 1019.07 1018.75 1018.46 1018.75 1018.40 1017.53 1016.61 1015.76 1015.35 1012.68 1006.74 1004.85 1003.87 1003.95 1004.05 1002.77 1002.93 1003.39 1004.03 1004.32 1004.64 1005.22 1005.36 1005.35 1005.75 1006.06 1006.07 1006.52 1007.20 1007.26 1007.83 1008.32 1008.63 1008.75
1021.58 1021.49 1021.45 1021.48 1021.30 1021.24 1021.07 1020.99 1020.65 1020.37 1020.06 1019.73 1019.30 1019.05 1018.70 1018.78 1019.01 1018.22 1017.60 1016.55 1015.67 1014.92 1011.02 1006.99 1005.10 1004.41 1004.46 1003.79 1002.60 1003.03 1003.35 1003.53 1003.97 1004.90 1005.26 1005.23 1005.14 1005.25 1005.52 1006.15 1006.29 1007.18 1007.91 1008.57 1008.99 1009.23 1009.33
1021.51 1021.50 1021.35 1021.32 1021.23 1021.12 1021.00 1020.79 1020.54 1020.32 1019.92 1019.62 1019.13 1018.92 1018.65 1018.63 1018.35 1017.81 1017.64 1017.19 1016.14 1013.57 1010.04 1007.49 1006.34 1005.11 1004.62 1003.35 1002.67 1002.69 1002.89 1003.49 1003.89 1005.03 1005.29 1005.28 1005.26 1005.15 1005.46 1006.49 1007.16 1007.34 1008.06 1009.23 1010.01 1010.08 1009.76
1021.24 1021.40 1021.22 1021.18 1021.11 1021.04 1020.90 1020.60 1020.41 1020.20 1019.83 1019.39 1018.95 1018.66 1018.27 1018.16 1017.89 1017.86 1018.07 1017.73 1015.65 1012.40 1010.69 1008.79 1007.25 1005.20 1004.16 1003.12 1002.64 1002.65 1003.21 1003.83 1004.10 1004.43 1004.99 1005.39 1005.63 1005.21 1005.32 1005.84 1006.83 1007.79 1008.08 1009.27 1010.16 1010.40 1009.74
1020.94 1020.96 1020.83 1020.98 1021.03 1020.85 1020.73 1020.48 1020.29 1020.06 1019.75 1019.24 1018.82 1018.86 1018.77 1018.10 1017.84 1018.09 1018.36 1017.58 1014.55 1012.48 1011.55 1010.24 1007.62 1006.36 1004.30 1003.55 1003.04 1002.88 1003.46 1003.79 1003.83 1003.91 1004.30 1005.02 1004.94 1004.82 1005.14 1005.59 1006.17 1008.07 1008.67 1009.26 1010.05 1010.17 1009.99
1020.76 1020.64 1020.68 1020.79 1020.85 1020.73 1020.57 1020.27 1020.15 1019.96 1019.66 1019.20 1019.44 1019.30 1018.72 1017.86 1017.85 1018.30 1018.33 1016.68 1014.50 1012.58 1011.70 1011.06 1009.46 1008.59 1006.52 1004.96 1003.88 1003.30 1003.68 1004.15 1003.75 1003.57 1003.58 1004.16 1004.78 1005.10 1005.61 1005.60 1006.77 1007.07 1008.43 1009.62 1010.46 1010.50 1009.53
1020.51 1020.53 1020.43 1020.56 1020.63 1020.51 1020.42 1020.09 1020.03 1019.87 1019.61 1019.30 1019.72 1019.40 1018.43 1018.01 1017.84 1018.34 1017.74 1016.38 1014.62 1013.25 1012.30 1012.34 1010.89 1009.59 1008.27 1006.66 1004.98 1004.20 1004.84 1004.41 1003.87 1003.74 1003.72 1004.06 1004.56 1005.80 1005.69 1006.08 1006.80 1007.88 1008.57 1009.36 1009.94 1010.25 1009.69
1020.27 1020.33 1020.24 1020.29 1020.32 1020.29 1020.20 1019.97 1019.95 1019.83 1019.60 1019.62 1020.16 1019.85 1018.58 1018.36 1018.39 1017.64 1017.18 1015.82 1014.47 1013.36 1012.46 1012.69 1012.17 1010.57 1009.57 1007.55 1005.82 1005.60 1005.69 1005.03 1004.22 1003.94 1004.44 1004.76 1005.38 1006.07 1006.57 1006.55 1006.50 1007.28 1008.36 1008.98 1009.64 1009.97 1009.41
1019.77 1019.89 1019.85 1020.03 1020.07 1020.12 1019.96 1019.87 1019.88 1019.81 1019.69 1020.28 1020.45 1019.75 1018.60 1018.71 1018.34 1017.85 1016.98 1015.75 1014.67 1013.72 1012.74 1012.31 1012.41 1011.45 1010.39 1009.27 1007.79 1006.91 1006.93 1005.72 1004.95 1004.77 1005.31 1005.25 1006.25 1006.79 1007.30 1007.15 1007.41 1007.92 1008.59 1009.06 1009.61 1009.91 1009.01
1019.44 1019.42 1019.57 1019.72 1019.73 1019.83 1019.77 1019.76 1019.76 1019.70 1019.79 1020.31 1020.61 1020.30 1019.44 1018.86 1018.59 1018.26 1017.09 1015.45 1014.59 1013.14 1012.59 1012.36 1011.82 1011.43 1010.80 1009.86 1008.59 1008.22 1007.49 1007.27 1006.24 1005.97 1005.61 1005.64 1007.00 1007.44 1008.06 1008.41 1008.51 1008.64 1008.77 1008.85 1009.19 1009.38 1008.48
1018.90 1019.02 1019.10 1019.31 1019.46 1019.60 1019.54 1019.57 1019.55 1019.53 1019.60 1020.28 1020.72 1020.82 1020.41 1019.71 1018.79 1018.48 1017.72 1016.30 1014.40 1013.21 1012.58 1012.44 1012.23 1011.84 1011.12 1010.53 1009.64 1009.33 1008.80 1007.77 1006.98 1006.95 1006.68 1007.10 1008.30 1008.37 1008.52 1008.71 1008.80 1008.81 1008.76 1008.55 1008.63 1008.28 1008.22
1018.51 1018.81 1018.81 1018.97 1019.12 1019.26 1019.25 1019.29 1019.28 1019.32 1019.45 1020.22 1020.65 1020.75 1020.40 1019.94 1019.14 1018.54 1017.75 1016.52 1015.58 1014.32 1013.49 1012.93 1012.50 1011.67 1011.42 1011.21 1010.82 1010.41 1009.70 1008.74 1008.88 1008.31 1008.23 1008.41 1009.23 1009.24 1009.34 1009.09 1008.97 1008.69 1007.89 1007.79 1007.63 1007.17 1007.01
1018.08 1018.32 1018.46 1018.61 1018.72 1018.89 1018.89 1018.95 1018.98 1019.03 1019.45 1020.02 1020.35 1020.48 1020.54 1019.90 1019.24 1018.73 1017.81 1016.97 1015.89 1014.97 1014.30 1013.30 1012.70 1012.24 1011.58 1011.19 1010.73 1010.28 1010.03 1009.70 1009.55 1009.38 1009.26 1009.35 1009.76 1010.09 1010.02 1009.73 1009.23 1008.53 1007.59 1007.41 1006.96 1006.57 1006.49
1017.71 1017.94 1018.10 1018.15 1018.24 1018.39 1018.45 1018.54 1018.59 1018.61 1018.89 1019.58 1019.88 1020.23 1020.38 1020.05 1019.41 1018.70 1017.80 1017.18 1016.10 1015.26 1014.62 1013.20 1012.72 1012.40 1012.13 1011.26 1010.65 1010.35 1010.15 1009.95 1009.78 1009.54 1009.75 1010.03 1010.26 1010.69 1010.72 1010.07 1009.32 1007.68 1007.06 1006.86 1006.76 1006.37 1006.09
1017.26 1017.45 1017.57 1017.61 1017.77 1017.91 1018.04 1018.15 1018.21 1018.16 1018.21 1018.98 1019.42 1019.86 1019.97 1019.79 1019.15 1018.51 1017.83 1017.11 1016.20 1015.37 1014.76 1014.12 1013.51 1013.35 1012.44 1011.84 1011.40 1010.97 1010.58 1010.30 1010.02 1010.03 1009.97 1010.29 1010.80 1011.23 1011.37 1010.74 1009.53 1008.13 1007.23 1007.48 1007.31 1006.57 1006.49
1016.68 1016.89 1016.99 1017.08 1017.15 1017.49 1017.62 1017.75 1017.82 1017.76 1017.74 1018.20 1018.69 1019.13 1019.43 1019.66 1018.96 1018.34 1017.79 1017.16 1016.65 1016.09 1015.33 1014.73 1013.91 1013.34 1012.81 1012.77 1012.33 1011.99 1011.62 1011.14 1010.72 1010.51 1010.64 1010.88 1011.26 1011.85 1011.94 1011.28 1010.21 1008.74 1007.83 1007.80 1007.26 1007.50 1007.49
1016.11 1016.28 1016.42 1016.51 1016.63 1017.06 1017.16 1017.29 1017.42 1017.34 1017.31 1017.65 1017.92 1018.37 1019.11 1019.31 1018.40 1018.17 1017.76 1017.34 1016.86 1016.68 1016.40 1015.78 1015.22 1014.44 1013.87 1013.81 1013.56 1013.11 1012.45 1011.94 1011.78 1011.38 1011.41 1011.86 1012.15 1012.31 1012.11 1011.74 1010.72 1009.54 1008.92 1008.11 1008.65 1009.51 1008.78
1015.52 1015.76 1015.81 1015.94 1016.24 1016.49 1016.65 1016.80 1016.97 1016.93 1016.91 1017.14 1017.20 1017.65 1018.34 1018.75 1018.09 1017.65 1017.43 1017.20 1016.95 1016.94 1016.98 1016.34 1015.85 1015.66 1015.25 1015.02 1014.74 1014.24 1013.68 1012.99 1012.56 1012.01 1012.00 1012.24 1012.53 1012.71 1012.46 1012.16 1011.43 1010.44 1009.65 1009.94 1010.32 1010.18 1010.03
1014.97 1015.17 1015.18 1015.48 1015.74 1015.91 1016.05 1016.24 1016.38 1016.46 1016.55 1016.64 1017.03 1017.30 1017.69 1018.17 1017.80 1017.30 1016.85 1016.58 1016.56 1016.47 1016.76 1016.80 1016.91 1016.75 1016.50 1016.13 1015.75 1015.04 1014.44 1014.05 1013.65 1012.92 1012.30 1012.66 1012.88 1012.98 1012.84 1012.00 1011.76 1011.74 1011.63 1011.76 1011.64 1011.66 1011.57
Thickness
5541 5539 5535 5533 5529 5528 5527 5525 5524 5523 5522 5519 5516 5517 5516 5518 5518 5521 5525 5527 5533 5535 5539 5545 5550 5559 5560 5569 5599 5622 5633 5637 5639 5640 5640 5641 5641 5636 5634 5645 5647 5642 5652 5657 5664 5667 5668
5531 5527 5524 5522 5519 5518 5517 5516 5513 5512 5512 5511 5509 5509 5507 5507 5506 5509 5514 5518 5524 5525 5530 5536 5538 5541 5545 5559 5599 5608 5612 5618 5626 5630 5631 5631 5634 5638 5633 5635 5638 5652 5648 5655 5658 5659 5661
5519 5516 5514 5511 5507 5506 5506 5504 5503 5503 5500 5504 5500 5499 5496 5495 5495 5498 5504 5511 5517 5521 5526 5530 5530 5529 5542 5583 5583 5593 5596 5602 5612 5615 5619 5625 5628 5628 5628 5626 5639 5644 5636 5642 5645 5650 5650
5507 5506 5505 5502 5500 5499 5498 5497 5495 5493 5492 5492 5490 5487 5487 5484 5483 5484 5491 5496 5505 5511 5521 5528 5526 5524 5543 5574 5574 5579 5582 5594 5600 5604 5608 5613 5617 5615 5618 5624 5625 5629 5629 5621 5644 5644 5652
5496 5497 5496 5493 5493 5491 5489 5488 5486 5484 5481 5479 5477 5476 5473 5470 5469 5471 5476 5484 5497 5503 5512 5517 5516 5515 5541 5561 5566 5578 5581 5587 5594 5598 5598 5602 5602 5603 5609 5602 5598 5603 5603 5616 5628 5641 5645
5489 5488 5488 5486 5485 5483 5480 5478 5476 5473 5469 5468 5464 5462 5460 5457 5454 5455 5461 5475 5488 5489 5493 5498 5507 5503 5538 5556 5562 5569 5573 5576 5584 5587 5583 5585 5585 5586 5587 5582 5582 5586 5596 5605 5611 5628 5630
5480 5480 5480 5478 5477 5474 5471 5468 5466 5463 5457 5456 5452 5451 5447 5445 5439 5439 5445 5454 5462 5461 5465 5466 5487 5502 5525 5538 5552 5557 5562 5568 5576 5576 5567 5575 5568 5574 5581 5590 5595 5593 5590 5596 5604 5615 5616
5472 5472 5471 5470 5468 5465 5461 5459 5455 5452 5448 5446 5442 5438 5435 5432 5427 5424 5420 5413 5417 5405 5443 5463 5486 5497 5521 5525 5530 5547 5553 5556 5566 5563 5564 5559 5566 5580 5583 5582 5582 5579 5578 5580 5594 5607 5609
5464 5463 5463 5462 5459 5456 5454 5451 5444 5441 5439 5435 5430 5425 5423 5421 5415 5407 5399 5399 5398 5398 5410 5476 5496 5513 5526 5526 5529 5542 5541 5550 5556 5556 5558 5560 5573 5581 5578 5575 5572 5570 5569 5575 5583 5593 5598
5455 5455 5455 5453 5449 5447 5445 5441 5435 5432 5428 5424 5418 5414 5411 5407 5401 5388 5389 5394 5394 5393 5405 5468 5490 5509 5523 5528 5525 5547 5546 5546 5549 5553 5553 5555 5568 5571 5569 5571 5571 5563 5575 5577 5578 5575 5567
5447 5448 5447 5443 5441 5438 5435 5430 5427 5422 5418 5412 5407 5404 5398 5388 5382 5376 5382 5385 5390 5392 5398 5490 5501 5511 5517 5525 5545 5543 5548 5543 5544 5550 5551 5555 5563 5560 5562 5570 5572 5567 5573 5570 5568 5564 5564
5441 5441 5439 5435 5433 5429 5425 5420 5418 5413 5407 5402 5399 5392 5385 5376 5365 5369 5373 5378 5385 5397 5412 5473 5488 5493 5497 5515 5536 5538 5539 5545 5548 5542 5546 5552 5563 5565 5566 5563 5572 5566 5562 5557 5554 5556 5539
5433 5432 5431 5428 5424 5420 5416 5413 5409 5403 5398 5393 5389 5381 5373 5367 5365 5365 5365 5365 5376 5391 5447 5471 5473 5492 5491 5515 5529 5536 5536 5534 5535 5530 5532 5548 5553 5562 5562 5554 5556 5559 5553 5517 5517 5546 5534
5427 5424 5423 5420 5417 5412 5408 5405 5400 5394 5389 5385 5379 5371 5365 5361 5361 5357 5352 5354 5372 5420 5435 5453 5467 5485 5494 5516 5524 5531 5530 5525 5534 5534 5521 5526 5534 5551 5560 5561 5553 5548 5554 5533 5534 5542 5545
5422 5419 5418 5413 5409 5405 5401 5397 5392 5386 5379 5375 5369 5360 5351 5350 5347 5342 5338 5342 5388 5412 5420 5425 5464 5478 5504 5508 5516 5526 5526 5525 5532 5536 5538 5528 5543 5554 5558 5556 5559 5539 5540 5543 5531 5527 5513
5414 5413 5411 5407 5402 5399 5395 5391 5384 5377 5370 5365 5354 5343 5336 5335 5328 5325 5326 5349 5375 5406 5419 5420 5442 5447 5473 5496 5508 5519 5522 5519 5530 5536 5546 5544 5537 5547 5546 5555 5547 5552 5542 5522 5520 5527 5533
5407 5406 5405 5401 5396 5393 5388 5385 5377 5369 5362 5354 5340 5330 5328 5320 5317 5317 5310 5333 5369 5392 5406 5402 5420 5439 5454 5480 5501 5509 5504 5517 5526 5532 5541 5543 5544 5538 5545 5545 5536 5534 5529 5523 5525 5521 5525
5401 5399 5398 5395 5391 5388 5383 5379 5371 5362 5355 5345 5329 5315 5322 5320 5314 5323 5306 5347 5371 5384 5403 5398 5404 5424 5437 5471 5495 5497 5500 5511 5523 5532 5528 5534 5530 5528 5531 5536 5543 5538 5529 5527 5508 5515 5526
5396 5395 5394 5390 5386 5381 5378 5373 5365 5356 5348 5336 5325 5324 5327 5322 5323 5323 5328 5348 5364 5377 5395 5408 5403 5413 5428 5443 5468 5491 5481 5504 5515 5520 5520 5530 5516 5520 5523 5530 5529 5527 5525 5526 5518 5509 5524
5390 5390 5389 5385 5382 5377 5373 5367 5360 5353 5344 5333 5324 5318 5317 5326 5326 5326 5334 5353 5363 5389 5396 5406 5416 5417 5422 5445 5468 5469 5485 5489 5504 5511 5519 5525 5511 5514 5505 5505 5516 5514 5521 5524 5519 5512 5525
5387 5385 5383 5380 5376 5372 5368 5362 5357 5350 5342 5332 5323 5313 5319 5313 5323 5329 5335 5349 5374 5388 5401 5402 5402 5412 5424 5432 5453 5452 5466 5481 5497 5498 5506 5506 5494 5505 5508 5509 5509 5511 5512 5516 5517 5522 5519
5380 5378 5377 5375 5371 5368 5364 5358 5353 5348 5341 5330 5321 5322 5321 5321 5333 5336 5341 5349 5356 5371 5385 5399 5403 5422 5426 5429 5435 5442 5449 5466 5467 5482 5488 5490 5480 5491 5497 5505 5499 5503 5513 5513 5519 5529 5529
5375 5373 5372 5370 5368 5364 5361 5356 5351 5346 5339 5331 5324 5324 5320 5327 5334 5335 5348 5355 5358 5374 5378 5397 5405 5413 5422 5428 5435 5444 5449 5455 5464 5472 5475 5480 5475 5476 5485 5488 5491 5498 5507 5518 5522 5529 5530
5367 5367 5366 5365 5364 5361 5358 5353 5349 5344 5339 5332 5328 5325 5324 5316 5329 5341 5349 5355 5364 5374 5380 5400 5407 5411 5417 5426 5434 5440 5444 5450 5455 5462 5467 5468 5470 5462 5465 5481 5470 5511 5516 5519 5522 5529 5533
5361 5361 5361 5361 5360 5358 5354 5350 5346 5343 5340 5332 5328 5325 5324 5307 5336 5341 5346 5355 5364 5373 5380 5389 5398 5401 5409 5420 5428 5442 5445 5458 5463 5459 5458 5461 5457 5451 5453 5468 5486 5503 5514 5507 5509 5521 5524
5356 5356 5357 5357 5357 5354 5351 5348 5344 5341 5338 5334 5329 5327 5326 5315 5324 5339 5345 5354 5358 5363 5373 5384 5395 5398 5407 5405 5412 5427 5435 5447 5454 5461 5447 5445 5448 5446 5439 5457 5446 5490 5506 5499 5507 5506 5503
5351 5352 5353 5354 5354 5350 5348 5345 5341 5339 5337 5334 5331 5329 5324 5322 5331 5339 5340 5347 5355 5357 5360 5372 5376 5385 5394 5396 5403 5415 5426 5438 5441 5451 5453 5432 5432 5445 5442 5453 5462 5477 5479 5493 5488 5484 5487
5346 5347 5349 5350 5349 5347 5345 5342 5339 5336 5335 5333 5333 5329 5327 5321 5329 5339 5343 5344 5349 5350 5346 5363 5368 5369 5385 5388 5396 5400 5398 5418 5426 5438 5444 5435 5426 5423 5444 5442 5446 5459 5473 5471 5466 5466 5473
5340 5342 5345 5346 5345 5344 5343 5340 5337 5335 5333 5333 5331 5328 5327 5327 5333 5338 5344 5348 5350 5354 5350 5352 5356 5359 5371 5370 5382 5391 5403 5390 5404 5420 5433 5415 5430 5437 5435 5443 5445 5443 5442 5440 5443 5443 5452